Regional Weather Roundup
Issued by NWS

Home | Current Version | Previous Version | Graphics & Text | Print | Product List | Glossary On
Versions: 1 2 3 4 5 6 7 8 9 10 11 12 13 14 15 16 17 18 19 20 21 22 23 24 25 26 27 28 29 30 31 32 33 34 35 36 37 38 39 40 41 42 43 44 45 46 47 48 49 50
000
ASUS43 KTOP 171208
RWRKS

WEATHER ROUNDUP FOR KANSAS
NATIONAL WEATHER SERVICE GOODLAND KS
600 AM CST SUN DEC 17 2017

NOTE:  "FAIR" INDICATES FEW OR NO CLOUDS BELOW 12,000 FEET WITH NO
SIGNIFICANT WEATHER AND/OR OBSTRUCTIONS TO VISIBILITY.

KSZ001>006-013>018-027>032-041>047-171300-
NORTHWEST KANSAS

CITY           SKY/WX    TMP DP  RH WIND       PRES   REMARKS
GOODLAND       CLOUDY    33  31  92 N10       29.97R WCI  25
6HR MIN TEMP:  31; 6HR MAX TEMP:  33;

HAYS           CLOUDY    34  28  79 N10       29.93R WCI  26
HILL CITY      CLOUDY    32  30  92 N12       29.95R WCI  23
6HR MIN TEMP:  32; 6HR MAX TEMP:  37; 6HR PCP: TRACE;

RUSSELL        CLOUDY    34  27  75 NW8       29.91R
6HR MIN TEMP:  33; 6HR MAX TEMP:  48; 6HR PCP: TRACE;

$$

KSZ061>065-074>080-084>089-171300-
SOUTHWEST KANSAS

CITY           SKY/WX    TMP DP  RH WIND       PRES   REMARKS
DODGE CITY     CLOUDY    31  27  85 NW9       29.91R
6HR MIN TEMP:  30; 6HR MAX TEMP:  46; 6HR PCP: TRACE;

ELKHART        CLOUDY    32  30  92 N23G29    29.94R WCI  20
GARDEN CITY    CLOUDY    27  24  89 N13       29.92R WCI  16
6HR MIN TEMP:  25; 6HR MAX TEMP:  43;

GREAT BEND     PTCLDY    36  31  82 SW9       29.94
LIBERAL        CLEAR     23  20  88 NW13      29.93R WCI  11
PRATT          MOCLDY    38  35  89 S8        29.94R
6HR MIN TEMP:  35; 6HR MAX TEMP:  48; 6HR PCP:  0.01;

$$

KSZ066>073-081>083-090>101-171300-
SOUTHEAST KANSAS

CITY           SKY/WX    TMP DP  RH WIND       PRES   REMARKS
CHANUTE        CLOUDY    43  42  97 S9        30.00R
6HR MIN TEMP:  43; 6HR MAX TEMP:  51; 6HR PCP:  0.22;

COFFEYVILLE    CLOUDY    44  43  96 S8        30.00R FOG
6HR MIN TEMP:  43; 6HR MAX TEMP:  45; 6HR PCP:  0.31;

HUTCHINSON     CLOUDY    41  40  96 S10       29.95R
6HR MIN TEMP:  39; 6HR MAX TEMP:  50; 6HR PCP:  0.02;

MEDICINE LODGE   N/A     40  38  93 S8        29.93F
NEWTON         CLOUDY    42  40  92 S14       29.96R
PARSONS        CLOUDY    43  43 100 S9        30.02R
6HR MIN TEMP:  43; 6HR MAX TEMP:  46; 6HR PCP:  0.33;

WICHITA INTL   CLOUDY    44  42  93 S14       29.96R
6HR MIN TEMP:  43; 6HR MAX TEMP:  45; 6HR PCP:  0.01;

WICHITA JABRA  CLOUDY    43  42  97 S13       29.97R
6HR MIN TEMP:  42; 6HR MAX TEMP:  44; 6HR PCP:  0.01;

WICHITA MCCONL CLOUDY    43  41  94 SW12      29.96R
WINFIELD       CLOUDY    44  43  96 SW8       29.98S
6HR MIN TEMP:  43; 6HR MAX TEMP:  44; 6HR PCP:  0.01;

$$

KSZ007>012-019>026-033>040-048>060-102>105-171300-
NORTHEAST KANSAS

CITY           SKY/WX    TMP DP  RH WIND       PRES   REMARKS
CONCORDIA      CLOUDY    38  29  70 CALM      29.92R
6HR MIN TEMP:  36; 6HR MAX TEMP:  39;

EMPORIA        CLOUDY    42  41  96 S7        29.96S
6HR MIN TEMP:  42; 6HR MAX TEMP:  44; 6HR PCP:  0.22;

LAWRENCE       LGT RAIN  43  42  97 SE3       29.99S FOG
6HR MIN TEMP:  41; 6HR MAX TEMP:  47; 6HR PCP:  0.14;

MANHATTAN      CLOUDY    43  41  93 S3        29.96R
6HR MIN TEMP:  43; 6HR MAX TEMP:  51; 6HR PCP:  0.04;

MARYSVILLE     RAIN      37  34  87 CALM      29.96R
OLATHE IND     LGT RAIN  42  42 100 S3        30.00R FOG
6HR MIN TEMP:  42; 6HR MAX TEMP:  48; 6HR PCP:  0.25;

OLATHE EXE     RAIN      42  42 100 S7        29.99S FOG
6HR MIN TEMP:  41; 6HR MAX TEMP:  48; 6HR PCP:  0.21;

SALINA         CLOUDY    44  42  93 S8        29.95R
6HR MIN TEMP:  44; 6HR MAX TEMP:  53; 6HR PCP:  0.02;

TOPEKA BILLARD LGT RAIN  43  43 100 S3        29.98S
6HR MIN TEMP:  41; 6HR MAX TEMP:  47; 6HR PCP:  0.15;

TOPEKA FORBES  RAIN      44  43  96 S5        29.97S FOG
6HR MIN TEMP:  43; 6HR MAX TEMP:  50; 6HR PCP:  0.33;

$$




USA.gov is the U.S. government's official web portal to all federal, state and local government web resources and services.